Regional Weather Roundup
Issued by NWS Midland/Odessa, TX

Home | Current Version | Previous Version | Text Only | Print | Product List | Glossary On
Versions: 1 2 3 4 5 6 7 8 9 10 11 12 13 14 15 16 17 18 19 20 21 22 23 24 25 26 27 28 29 30 31 32 33 34 35 36 37 38 39 40 41 42 43 44 45 46 47 48 49 50
000
ASUS44 KMAF 140310
RWRMAF
MIDLAND AREA WEATHER ROUNDUP
NATIONAL WEATHER SERVICE MIDLAND TX
900 PM CST WED DEC 13 2017

...IN SOUTHWEST TEXAS AND SOUTHEAST NEW MEXICO...

CITY           SKY/WX    TMP DP  RH WIND       PRES   REMARKS
ALPINE         CLOUDY    51  31  46 SW8G17    30.08S
ANDREWS        FAIR      50  26  39 W8        29.94S
ARTESIA        CLEAR     45  10  24 NW13      29.98S WCI  38
BIG SPRING     CLEAR     47  27  47 S9        29.95S
CARLSBAD       CLEAR     43  18  36 W9        29.95S WCI  38
DRYDEN           N/A     47  37  68 CALM      29.95F
FORT STOCKTON  NOT AVBL
GUAD PASS      CLEAR     46  25  43 SW14      30.03F WCI  40
HOBBS          CLEAR     37  10  32 N8        29.96R WCI  31
LAMESA         FAIR      46  19  34 SE7       29.93S
MARFA          NOT AVBL
MIDLAND AIRPK  CLEAR     52  30  43 S3        29.94S
MIDLAND INTL   CLEAR     46  30  53 S5        29.93F
ODESSA         CLEAR     51  30  44 S5        29.93F
PECOS          CLEAR     48  34  59 SW9       29.95R
PRESIDIO       FAIR      55  34  46 NE5       30.03S
SEMINOLE       CLEAR     43  20  41 CALM      29.95S
SNYDER         CLEAR     49  23  37 N6        29.94R
WINK           CLEAR     42  30  62 N7        29.91F WCI  38
$$
...OTHER STATIONS IN TEXAS...

CITY           SKY/WX    TMP DP  RH WIND       PRES   REMARKS
ABILENE        CLEAR     46  25  43 S10       29.91S
AMARILLO       CLOUDY    40  16  37 N6        30.02R WCI  36
AUSTIN         CLOUDY    44  36  73 CALM      29.98R
BROWNSVILLE    CLOUDY    60  54  80 S3        30.03S
CORPUS CHRISTI MOCLDY    52  50  93 CALM      30.02R
DALLAS FTW     CLEAR     58  28  32 SW3       29.89R
DEL RIO        CLOUDY    49  39  68 E5        29.98F
EL PASO        PTCLDY    53  28  38 SW8       30.00S
HOUSTON INT    CLOUDY    51  37  58 SW3       29.99F
LUBBOCK        CLOUDY    40  14  34 NE12      29.96R WCI  33
SAN ANGELO     CLOUDY    48  29  47 SW8       29.95S
SAN ANTONIO    CLOUDY    55  35  47 SW7       29.99F
WACO           CLEAR     48  35  60 S10       29.92F
WICHITA FALLS  PTCLDY    50  24  36 N13       29.94S
$$
...OTHER LOCATIONS IN NEW MEXICO...

CITY           SKY/WX    TMP DP  RH WIND       PRES   REMARKS
ALAMOGORDO     CLOUDY    39   3  22 E3        30.02S
ALBUQUERQUE    CLOUDY    38   3  23 SE6       30.01F WCI  33
CANNON AFB     CLEAR     38  13  35 NE12      30.02R WCI  31
CLOVIS         CLEAR     32  14  47 MISG      30.02R
HOLLOMAN AFB   CLOUDY    36   6  28 E7        30.03S WCI  30
ROSWELL        CLOUDY    42  12  29 NW6       29.98S WCI  38
RUIDOSO        CLOUDY    37   3  23 SW7       30.08F WCI  32
SANTA FE       CLOUDY    32   6  33 CALM      30.03F
TRUTH OR CONSE CLEAR     41   3  20 NW9       30.02S WCI  35
TUCUMCARI      CLOUDY    36  12  37 CALM      30.00R
$$




USA.gov is the U.S. government's official web portal to all federal, state and local government web resources and services.